GW1213 Weather Reports


time (UTC)temp
C
wind
direction
speed
KPH
gust
KPH
rain 1hr
cm
rain 24hr
cm
rain mn
cm
humidity
%
barometer
mb
20260906145038 24 0 3.2 9.7 0.00 0.48 0.03 69 1014.7
20260906144600 24 0 0.0 0.0 0.00 0.48 0.03 70 1014.6
20260906144041 24 0 0.0 0.0 0.00 0.48 0.03 70 1014.6
20260906143535 24 0 0.0 3.2 0.00 0.48 0.03 73 1014.6
20260906143058 24 0 0.0 6.4 0.00 0.48 0.03 73 1014.5
20260906142535 24 0 0.0 6.4 0.00 0.48 0.03 73 1014.6
20260906142039 23 34 0.0 3.2 0.00 0.48 0.03 73 1014.6
20260906141600 23 0 0.0 0.0 0.00 0.48 0.03 72 1014.6
20260906141035 23 0 0.0 0.0 0.00 0.48 0.03 73 1014.6
20260906140537 23 0 0.0 0.0 0.00 0.48 0.03 75 1014.6
20260906140108 23 0 0.0 0.0 0.00 0.48 0.03 75 1014.6
20260906135535 23 0 0.0 1.6 0.00 0.48 0.03 75 1014.5
20260906135035 23 0 0.0 1.6 0.00 0.48 0.03 75 1014.5
20260906134615 23 0 0.0 3.2 0.00 0.48 0.03 75 1014.5
20260906134035 23 9 0.0 6.4 0.00 0.48 0.03 76 1014.6
20260906133537 23 0 1.6 6.4 0.00 0.48 0.03 77 1014.5
20260906133113 22 0 0.0 3.2 0.00 0.48 0.03 77 1014.6
20260906132542 22 0 0.0 3.2 0.00 0.48 0.03 78 1014.6
20260906132037 22 0 0.0 3.2 0.00 0.48 0.03 79 1014.4
20260906131558 22 48 0.0 3.2 0.00 0.48 0.03 80 1014.4
20260906131036 22 0 0.0 3.2 0.00 0.48 0.03 79 1014.5
20260906130538 22 0 0.0 4.8 0.00 0.48 0.03 79 1014.4
20260906130112 22 0 0.0 4.8 0.00 0.48 0.03 80 1014.4
20260906125539 22 349 0.0 3.2 0.00 0.48 0.03 80 1014.4
20260906125037 21 0 0.0 3.2 0.00 0.48 0.03 81 1014.3
20260906124608 21 88 0.0 4.8 0.00 0.48 0.03 82 1014.3
20260906124038 21 0 0.0 4.8 0.00 0.48 0.03 80 1014.4
20260906123537 21 0 0.0 3.2 0.00 0.48 0.03 81 1014.4
20260906123103 21 0 0.0 3.2 0.00 0.48 0.03 82 1014.3
20260906122538 21 0 0.0 0.0 0.00 0.48 0.03 83 1014.2
20260906122038 21 0 0.0 0.0 0.00 0.48 0.03 84 1014.2
20260906121620 21 0 0.0 0.0 0.00 0.48 0.03 85 1014.1
20260906121037 20 0 0.0 0.0 0.00 0.48 0.03 86 1014.1
20260906120537 20 0 0.0 0.0 0.00 0.48 0.03 87 1014.0
20260906115535 19 0 0.0 0.0 0.00 0.48 0.03 90 1014.0
20260906115035 19 0 0.0 0.0 0.00 0.48 0.03 91 1014.0
20260906114622 18 0 0.0 0.0 0.00 0.48 0.03 92 1013.9
20260906114039 18 0 0.0 0.0 0.00 0.48 0.03 93 1013.8
20260906113536 18 0 0.0 0.0 0.00 0.48 0.03 93 1013.7
20260906113104 18 0 0.0 0.0 0.00 0.48 0.03 93 1013.7
20260906112535 18 0 0.0 0.0 0.00 0.48 0.03 93 1013.6
20260906112038 18 0 0.0 0.0 0.00 0.48 0.03 93 1013.5
20260906111603 18 0 0.0 0.0 0.00 0.48 0.03 93 1013.5
20260906111035 18 0 0.0 0.0 0.00 0.48 0.03 93 1013.4
20260906110536 18 0 0.0 0.0 0.00 0.48 0.03 94 1013.3
20260906110058 18 0 0.0 0.0 0.00 0.48 0.03 94 1013.3
20260906105541 18 0 0.0 0.0 0.00 0.48 0.03 94 1013.2
20260906105039 18 0 0.0 0.0 0.00 0.48 0.03 94 1013.1
20260906104556 18 0 0.0 0.0 0.00 0.48 0.03 95 1013.1
20260906104038 18 0 0.0 0.0 0.00 0.48 0.03 95 1013.0
20260906103537 18 0 0.0 0.0 0.00 0.48 0.03 95 1013.0
20260906103102 18 0 0.0 1.6 0.00 0.48 0.03 95 1013.0
20260906102538 18 0 0.0 3.2 0.00 0.48 0.03 95 1012.9
20260906102041 18 0 0.0 3.2 0.00 0.48 0.03 95 1012.7
20260906101603 18 0 0.0 3.2 0.00 0.48 0.03 95 1012.5
20260906101039 18 0 0.0 3.2 0.00 0.48 0.03 96 1012.4
20260906100537 18 0 0.0 0.0 0.00 0.48 0.03 96 1012.5
20260906100058 18 0 0.0 0.0 0.00 0.48 0.03 96 1012.4
20260906095535 18 0 0.0 0.0 0.03 0.48 0.03 96 1012.5
20260906095038 18 0 0.0 0.0 0.03 0.48 0.03 96 1012.5
20260906094601 18 0 0.0 0.0 0.03 0.48 0.03 96 1012.5
20260906094038 18 0 0.0 0.0 0.03 0.48 0.03 96 1012.6
20260906093538 18 0 0.0 0.0 0.03 0.48 0.03 96 1012.7
20260906093108 19 0 0.0 0.0 0.03 0.48 0.03 96 1012.5
20260906092538 19 0 0.0 0.0 0.03 0.48 0.03 96 1012.4
20260906092036 19 0 0.0 0.0 0.03 0.48 0.03 96 1012.4
20260906091604 19 0 0.0 0.0 0.03 0.48 0.03 96 1012.2
20260906091038 19 0 0.0 0.0 0.03 0.48 0.03 96 1012.1
20260906090538 19 0 0.0 0.0 0.03 0.48 0.03 96 1012.0
20260906090112 19 0 0.0 0.0 0.03 0.48 0.03 96 1012.0
20260906085538 19 0 0.0 0.0 0.00 0.46 0.00 96 1012.0
20260906085037 19 0 0.0 0.0 0.00 0.46 0.00 96 1011.9
20260906084601 20 0 0.0 0.0 0.00 0.46 0.00 96 1011.9
20260906084035 20 0 0.0 0.0 0.00 0.46 0.00 96 1011.9
20260906083538 20 0 0.0 0.0 0.00 0.46 0.00 96 1011.8
20260906083102 20 0 0.0 0.0 0.00 0.46 0.00 96 1011.9
20260906082538 20 0 0.0 0.0 0.00 0.46 0.00 96 1011.8
20260906082038 20 0 0.0 0.0 0.00 0.46 0.00 96 1011.7
20260906081601 20 0 0.0 0.0 0.00 0.46 0.00 96 1011.7
20260906081035 20 0 0.0 0.0 0.00 0.46 0.00 96 1011.6
20260906080536 20 0 0.0 0.0 0.00 0.46 0.00 96 1011.5
20260906080106 20 0 0.0 0.0 0.00 0.46 0.00 97 1011.5
20260906075535 20 0 0.0 0.0 0.00 0.46 0.00 97 1011.4
20260906075036 20 0 0.0 0.0 0.00 0.46 0.00 96 1011.4
20260906074601 20 0 0.0 0.0 0.00 0.46 0.00 96 1011.4
20260906074038 20 0 0.0 0.0 0.00 0.46 0.00 96 1011.5
20260906073537 20 0 0.0 0.0 0.00 0.46 0.00 96 1011.5
20260906073101 20 0 0.0 0.0 0.00 0.46 0.00 96 1011.5
20260906072536 20 0 0.0 0.0 0.00 0.46 0.00 96 1011.4
20260906072035 20 0 0.0 0.0 0.00 0.46 0.00 97 1011.4
20260906071611 20 0 0.0 0.0 0.00 0.46 0.00 97 1011.4
20260906071035 20 0 0.0 0.0 0.00 0.46 0.00 97 1011.4
20260906070534 20 0 0.0 0.0 0.00 0.46 0.00 97 1011.5
20260906070109 20 0 0.0 0.0 0.00 0.46 0.00 97 1011.4
20260906065541 20 0 0.0 0.0 0.00 0.46 0.00 96 1011.5
20260906065037 21 0 0.0 0.0 0.00 0.46 0.00 96 1011.6
20260906064603 21 0 0.0 0.0 0.00 0.46 0.00 96 1011.5
20260906064038 21 0 0.0 0.0 0.00 0.46 0.00 97 1011.5
20260906063540 21 0 0.0 0.0 0.00 0.46 0.00 96 1011.6
20260906063102 21 0 0.0 0.0 0.00 0.46 0.00 96 1011.5
20260906062538 21 0 0.0 0.0 0.00 0.46 0.00 96 1011.6
20260906062041 21 0 0.0 0.0 0.00 0.46 0.00 96 1011.6
20260906061605 21 0 0.0 0.0 0.00 0.46 0.00 96 1011.5
20260906061035 21 0 0.0 0.0 0.00 0.46 0.00 96 1011.5
20260906060535 21 0 0.0 0.0 0.00 0.46 0.00 96 1011.4
20260906060149 21 0 0.0 0.0 0.00 0.46 0.00 97 1011.4
20260906055538 21 0 0.0 0.0 0.00 0.46 0.00 97 1011.4
20260906055038 21 0 0.0 0.0 0.00 0.46 0.00 97 1011.4
20260906054616 21 0 0.0 0.0 0.00 0.46 0.00 97 1011.5
20260906054037 21 0 0.0 0.0 0.00 0.46 0.00 96 1011.5
20260906053540 21 0 0.0 0.0 0.00 0.46 0.00 96 1011.6
20260906053102 21 0 0.0 0.0 0.00 0.46 0.00 96 1011.7
20260906052536 21 0 0.0 0.0 0.00 0.46 0.00 96 1011.8
20260906052037 21 0 0.0 0.0 0.00 0.46 0.00 96 1011.9
20260906051559 21 0 0.0 0.0 0.00 0.46 0.00 96 1011.8
20260906051036 21 0 0.0 0.0 0.00 0.46 0.00 96 1011.9
20260906050535 21 0 0.0 0.0 0.00 0.46 0.00 96 1011.8
20260906050113 21 0 0.0 0.0 0.00 0.46 0.00 96 1011.7
20260906045535 21 0 0.0 0.0 0.00 0.46 0.00 96 1011.7
20260906045038 21 0 0.0 0.0 0.00 0.46 0.00 96 1011.7
20260906044602 21 0 0.0 0.0 0.00 0.46 0.00 96 1011.8
20260906044040 21 0 0.0 0.0 0.00 0.46 0.00 96 1011.9
20260906043539 21 0 0.0 0.0 0.00 0.46 0.00 96 1011.9
20260906043109 21 0 0.0 0.0 0.00 0.46 0.00 96 1011.9
20260906042536 21 0 0.0 0.0 0.00 0.46 0.00 96 1012.0
20260906042035 21 0 0.0 0.0 0.00 0.46 0.00 96 1012.0
20260906041559 21 0 0.0 0.0 0.00 0.46 0.00 96 1011.9
20260906041036 21 0 0.0 0.0 0.00 0.46 0.00 96 1012.0
20260906040538 21 0 0.0 0.0 0.00 0.46 0.00 96 1011.9
20260906040111 21 0 0.0 0.0 0.00 0.46 0.00 96 1011.9
20260906035616 22 0 0.0 0.0 0.00 0.46 0.46 96 1012.0
20260906035038 22 0 0.0 0.0 0.00 0.46 0.46 96 1012.0
20260906034607 22 0 0.0 0.0 0.00 0.46 0.46 96 1012.1
20260906034035 22 0 0.0 0.0 0.00 0.46 0.46 96 1012.1
20260906033535 22 0 0.0 0.0 0.00 0.46 0.46 96 1012.0
20260906033059 22 0 0.0 0.0 0.00 0.46 0.46 96 1012.0
20260906032535 22 0 0.0 0.0 0.00 0.46 0.46 96 1012.0
20260906032035 22 0 0.0 0.0 0.00 0.46 0.46 96 1012.0
20260906031620 22 0 0.0 0.0 0.00 0.46 0.46 96 1011.9
20260906031035 22 0 0.0 0.0 0.00 0.46 0.46 96 1011.9
20260906030537 22 0 0.0 3.2 0.00 0.46 0.46 96 1012.0
20260906030109 22 0 0.0 4.8 0.00 0.46 0.46 96 1012.1
20260906025538 22 0 1.6 4.8 0.00 0.46 0.46 96 1012.0
20260906025036 22 57 0.0 0.0 0.00 0.46 0.46 96 1011.8
20260906024605 22 0 0.0 0.0 0.00 0.46 0.46 96 1011.6
20260906024036 22 0 0.0 0.0 0.00 0.46 0.46 96 1011.8
20260906023538 22 0 0.0 0.0 0.00 0.46 0.46 95 1011.8
20260906023110 22 0 0.0 0.0 0.00 0.46 0.46 96 1011.8
20260906022539 22 0 0.0 0.0 0.00 0.46 0.46 95 1011.9
20260906022035 22 0 0.0 0.0 0.00 0.46 0.46 95 1011.7
20260906021557 22 0 0.0 0.0 0.00 0.46 0.46 95 1011.8
20260906021040 22 0 0.0 0.0 0.00 0.46 0.46 95 1011.7
20260906020538 22 0 0.0 0.0 0.00 0.46 0.46 95 1011.6
20260906020109 22 0 0.0 0.0 0.00 0.46 0.46 95 1011.6
20260906015539 22 0 0.0 0.0 0.00 0.46 0.46 95 1011.5
20260906015035 22 0 0.0 0.0 0.00 0.46 0.46 95 1011.5
20260906014600 22 0 0.0 0.0 0.00 0.46 0.46 95 1011.5
20260906014036 22 0 0.0 0.0 0.00 0.46 0.46 95 1011.5
20260906013537 22 0 0.0 0.0 0.00 0.46 0.46 95 1011.4
20260906013059 22 0 0.0 0.0 0.00 0.46 0.46 95 1011.4
20260906012537 22 0 0.0 0.0 0.00 0.46 0.46 95 1011.3
20260906012039 22 0 0.0 0.0 0.00 0.46 0.46 95 1011.1
20260906011607 22 0 0.0 0.0 0.00 0.46 0.46 95 1011.0
20260906011038 22 0 0.0 0.0 0.00 0.46 0.46 95 1010.9
20260906010537 22 0 0.0 0.0 0.00 0.46 0.46 94 1010.9
20260906010104 23 0 0.0 0.0 0.00 0.46 0.46 94 1010.8
20260906005537 23 0 0.0 0.0 0.00 0.46 0.46 94 1010.8
20260906005038 23 0 0.0 0.0 0.00 0.46 0.46 94 1010.8
20260906004608 23 0 0.0 0.0 0.00 0.46 0.46 94 1010.8
20260906004038 23 0 0.0 0.0 0.00 0.46 0.46 94 1010.8
20260906003538 23 0 0.0 0.0 0.00 0.46 0.46 94 1010.7
20260906003101 23 0 0.0 0.0 0.00 0.46 0.46 94 1010.6
20260906002538 23 0 0.0 0.0 0.00 0.46 0.46 94 1010.6
20260906002038 23 0 0.0 0.0 0.00 0.46 0.46 94 1010.5
20260906001559 23 0 0.0 0.0 0.00 0.46 0.46 94 1010.4
20260906001034 23 0 0.0 0.0 0.00 0.46 0.46 94 1010.4
20260906000537 23 0 0.0 0.0 0.00 0.46 0.46 93 1010.4
20260906000110 23 0 0.0 0.0 0.00 0.46 0.46 93 1010.3
20260905235541 23 0 0.0 0.0 0.00 0.46 0.46 92 1010.4
20260905235034 23 0 0.0 0.0 0.00 0.46 0.46 92 1010.4
20260905234601 23 0 0.0 0.0 0.00 0.46 0.46 92 1010.4
20260905234039 23 0 0.0 0.0 0.00 0.46 0.46 92 1010.4
20260905233538 23 0 0.0 0.0 0.00 0.46 0.46 92 1010.5
20260905233103 24 0 0.0 0.0 0.00 0.46 0.46 91 1010.5
20260905232537 24 0 0.0 0.0 0.00 0.46 0.46 91 1010.6
20260905232037 24 0 0.0 0.0 0.00 0.46 0.46 91 1010.4
20260905231618 24 0 0.0 0.0 0.00 0.46 0.46 90 1010.4
20260905231040 25 0 0.0 0.0 0.00 0.46 0.46 89 1010.4
20260905230538 25 0 0.0 0.0 0.00 0.46 0.46 88 1010.4
20260905230107 25 0 0.0 0.0 0.00 0.46 0.46 87 1010.2
20260905225536 25 0 0.0 0.0 0.00 0.46 0.46 87 1010.2
20260905225037 25 0 0.0 0.0 0.00 0.46 0.46 86 1010.2
20260905224602 25 0 0.0 0.0 0.00 0.46 0.46 86 1010.4
20260905224041 26 0 0.0 0.0 0.00 0.46 0.46 84 1010.3
20260905223536 26 0 0.0 0.0 0.00 0.46 0.46 82 1010.3
20260905223102 26 0 0.0 0.0 0.00 0.46 0.46 82 1010.3
20260905222536 26 0 0.0 0.0 0.00 0.46 0.46 82 1010.3
20260905222036 26 0 0.0 4.8 0.00 0.46 0.46 82 1010.1
20260905221619 26 0 0.0 6.4 0.00 0.46 0.46 82 1010.2
20260905221039 26 0 1.6 6.4 0.00 0.46 0.46 81 1010.2
20260905220537 26 0 0.0 0.0 0.00 0.46 0.46 83 1010.1
20260905220058 25 0 0.0 1.6 0.00 0.46 0.46 82 1010.1
20260905215537 25 0 0.0 4.8 0.00 0.46 0.46 83 1010.0
20260905215037 25 0 1.6 4.8 0.00 0.46 0.46 82 1009.8
20260905214609 25 0 0.0 1.6 0.00 0.46 0.46 84 1009.8
20260905214038 25 0 0.0 1.6 0.00 0.46 0.46 82 1010.1
20260905213538 25 0 0.0 4.8 0.00 0.46 0.46 83 1010.0
20260905213106 25 0 0.0 4.8 0.00 0.46 0.46 84 1010.0
20260905212537 25 0 0.0 6.4 0.00 0.46 0.46 84 1010.1
20260905212037 25 0 0.0 6.4 0.00 0.46 0.46 82 1010.0
20260905211558 25 209 0.0 3.2 0.00 0.46 0.46 84 1009.9
20260905211037 25 0 0.0 3.2 0.00 0.46 0.46 84 1009.9
20260905210540 25 0 0.0 3.2 0.00 0.46 0.46 84 1009.9
20260905210111 25 0 0.0 1.6 0.00 0.46 0.46 86 1009.8
20260905205537 25 0 0.0 3.2 0.00 0.46 0.46 86 1009.8
20260905205037 25 0 0.0 3.2 0.00 0.46 0.46 85 1009.8
20260905204559 25 232 0.0 3.2 0.00 0.46 0.46 86 1009.9
20260905204037 24 0 0.0 3.2 0.00 0.46 0.46 86 1009.8
20260905203537 24 0 0.0 6.4 0.00 0.46 0.46 86 1009.9
20260905203102 24 105 0.0 6.4 0.00 0.46 0.46 87 1009.9
20260905202538 24 214 1.6 6.4 0.00 0.46 0.46 86 1009.8
20260905202038 24 0 0.0 8.0 0.00 0.46 0.46 87 1009.8
20260905201601 24 0 1.6 8.0 0.00 0.46 0.46 87 1009.9
20260905201037 24 0 1.6 8.0 0.00 0.46 0.46 87 1010.0
20260905200542 24 255 1.6 8.0 0.00 0.46 0.46 87 1010.0
20260905200128 24 0 1.6 9.7 0.00 0.46 0.46 87 1010.0
20260905195535 25 173 1.6 9.7 0.00 0.46 0.46 86 1009.9
20260905195034 25 169 1.6 12.9 0.00 0.46 0.46 86 1010.1
20260905194556 25 274 0.0 12.9 0.00 0.46 0.46 86 1010.2
20260905194038 25 238 0.0 9.7 0.00 0.46 0.46 87 1010.1
20260905193538 25 0 1.6 8.0 0.00 0.46 0.46 88 1010.2
20260905193058 25 0 1.6 9.7 0.00 0.46 0.46 88 1010.3
20260905192538 25 217 1.6 9.7 0.00 0.46 0.46 88 1010.4
20260905192037 24 0 1.6 9.7 0.00 0.46 0.46 91 1010.3
20260905191600 24 231 1.6 8.0 0.00 0.46 0.46 90 1010.3
20260905191037 23 0 3.2 8.0 0.00 0.46 0.46 90 1010.4
20260905190538 24 151 3.2 8.0 0.00 0.46 0.46 92 1010.4
20260905190100 23 143 1.6 6.4 0.00 0.46 0.46 94 1010.4
20260905185543 23 0 0.0 6.4 0.00 0.46 0.46 94 1010.5
20260905185039 23 260 0.0 11.3 0.00 0.46 0.46 94 1010.6
20260905184609 23 0 0.0 11.3 0.00 0.46 0.46 94 1010.6
20260905184041 23 185 1.6 9.7 0.00 0.46 0.46 94 1010.8
20260905183538 23 195 3.2 14.5 0.00 0.46 0.46 94 1011.0
20260905183102 23 217 4.8 14.5 0.00 0.46 0.46 94 1011.1
20260905182537 23 186 3.2 12.9 0.00 0.46 0.46 95 1011.0
20260905182042 23 259 4.8 12.9 0.00 0.46 0.46 95 1010.8
20260905181600 23 225 1.6 8.0 0.00 0.46 0.46 96 1010.9
20260905181039 23 0 0.0 0.0 0.00 0.46 0.46 96 1010.7
20260905180534 22 0 0.0 0.0 0.03 0.46 0.46 96 1010.3
20260905180113 22 0 0.0 0.0 0.03 0.46 0.46 95 1010.2
20260905175537 22 0 0.0 0.0 0.08 0.46 0.46 95 1010.2
20260905175037 22 0 0.0 3.2 0.10 0.46 0.46 95 1010.2
20260905174602 22 0 0.0 6.4 0.13 0.46 0.46 95 1010.2
20260905174038 22 0 1.6 6.4 0.18 0.46 0.46 94 1009.9
20260905173538 22 128 0.0 6.4 0.25 0.46 0.46 95 1010.0
20260905173124 22 0 1.6 6.4 0.41 0.46 0.46 94 1010.1
20260905172536 22 54 0.0 0.0 0.43 0.46 0.46 95 1010.5
20260905172036 22 0 0.0 0.0 0.46 0.46 0.46 95 1010.7
20260905171559 22 0 0.0 0.0 0.46 0.46 0.46 94 1010.8
20260905171036 22 0 0.0 6.4 0.46 0.46 0.46 94 1010.8
20260905170538 22 0 0.0 8.0 0.43 0.43 0.43 94 1010.9
20260905170106 22 63 3.2 8.0 0.43 0.43 0.43 93 1011.0
20260905165536 22 71 4.8 8.0 0.38 0.38 0.38 92 1011.2
20260905165038 22 77 3.2 8.0 0.36 0.36 0.36 91 1011.4
20260905164611 23 65 1.6 4.8 0.33 0.33 0.33 89 1011.7
20260905164038 23 138 0.0 11.3 0.28 0.28 0.28 88 1011.9
20260905163536 23 0 1.6 11.3 0.20 0.20 0.20 86 1012.6
20260905163101 25 240 3.2 11.3 0.05 0.05 0.05 83 1013.0
20260905162538 25 254 1.6 4.8 0.03 0.03 0.03 84 1013.0
20260905162038 25 274 0.0 0.0 0.00 0.00 0.00 83 1012.4
20260905161559 25 0 0.0 0.0 0.00 0.00 0.00 81 1012.2
20260905161037 25 0 0.0 3.2 0.00 0.00 0.00 80 1012.1
20260905160539 26 0 0.0 4.8 0.00 0.00 0.00 79 1012.0
20260905160059 26 0 0.0 4.8 0.00 0.00 0.00 79 1012.0
20260905155538 26 352 1.6 4.8 0.00 0.00 0.00 79 1012.0
20260905155037 26 0 0.0 3.2 0.00 0.00 0.00 79 1012.0
20260905154606 26 0 0.0 3.2 0.00 0.00 0.00 78 1011.9
20260905154038 26 352 0.0 6.4 0.00 0.00 0.00 78 1011.8
20260905153537 26 0 0.0 6.4 0.00 0.00 0.00 78 1011.7
20260905153100 26 346 3.2 6.4 0.00 0.00 0.00 77 1011.6
20260905152538 26 16 1.6 6.4 0.00 0.00 0.00 77 1011.6
20260905152036 26 352 1.6 6.4 0.00 0.00 0.00 77 1011.6
20260905151605 26 360 0.0 6.4 0.00 0.00 0.00 76 1011.6
20260905151038 26 0 0.0 4.8 0.00 0.00 0.00 77 1011.7
20260905150538 26 329 0.0 3.2 0.00 0.00 0.00 77 1011.8
20260905150100 26 352 0.0 3.2 0.00 0.00 0.00 78 1011.9
20260905145540 26 0 0.0 3.2 0.00 0.00 0.00 78 1011.8